OpenBCM V1.07b12 (Linux)

Packet Radio Mailbox

SR1BSZ

[Szczecin_PL JO73GK]

 Login: GUEST





  
I0OJJ  > KEPS     10.09.25 09:03z 313 Lines 14851 Bytes #10 (0) @ AMSAT
BID : ORB25253.1
Read: GUEST
Subj: 2Line Orbital Elements 25253.AMSAT
Path: SR1BSZ<EA2RCF<I0OJJ
Sent: 250910/0025z @:I0OJJ.ITA.EU [Rome] obcm1.08-10-g596e
From: I0OJJ @ I0OJJ.ITA.EU (Gustavo)
To:   KEPS @ AMSAT
X-Info: This message was generated automatically


QST de W1STR

AMSAT Orbital Elements for Amateur Satellites in TLE Format
From Orbital Analysis Office
New England Sci-Tech STEM Education Center
Natick MA September 10, 2025
To all radio amateurs


These element sets describe the orbits of various satellites 
in use by the amateur radio community. For details see:
www.amsat.org/keplerian-elements-formats/

A daily update of element sets is available at:
www.amsat.org/tle/daily-bulletin.txt
or without bulletin text:
www.amsat.org/tle/dailytle.txt


AO-07
1 07530U 74089B   25252.01596420 -.00000037  00000-0  62008-4 0  9997
2 07530 101.9978 257.2645 0011990 309.1070 117.4567 12.53691450325280
UO-11
1 14781U 84021B   25252.16463556  .00001468  00000-0  15925-3 0  9992
2 14781  97.7642 216.7789 0008833  43.1883 317.0026 14.89649370215274
AO-27
1 22825U 93061C   25252.10598034  .00000119  00000-0  62361-4 0  9997
2 22825  98.7285 314.0825 0008059 197.6637 162.4266 14.30826870666806
FO-29
1 24278U 96046B   25252.21136174  .00000005  00000-0  37721-4 0  9998
2 24278  98.5599 133.9904 0350860 105.1160 258.9070 13.53253398435167
NOAA-15
1 25338U 98030A   25252.24416012  .00000140  00000-0  75230-4 0  9993
2 25338  98.5324 275.1564 0011459  91.1065 269.1429 14.27014161421227
GO-32
1 25397U 98043D   25251.94417964  .00000087  00000-0  57590-4 0  9994
2 25397  98.9804 233.0106 0000836   1.2323 358.8857 14.24337106411291
ISS
1 25544U 98067A   25252.19474949  .00008866  00000-0  16199-3 0  9990
2 25544  51.6325 250.6930 0004281 318.3144  41.7518 15.50201228528195
NO-44
1 26931U 01043C   25252.22604388  .00000152  00000-0  87792-4 0  9993
2 26931  67.0488 250.8785 0007029 275.4929  84.5371 14.31775224250222
SO-50
1 27607U 02058C   25252.27422266  .00001422  00000-0  19147-3 0  9998
2 27607  64.5515 277.4414 0065763 314.6798  44.8959 14.81865594222819
CO-55
1 27844U 03031E   25252.02189060  .00000344  00000-0  16858-3 0  9996
2 27844  98.6789 259.1280 0008442 284.3647  75.6594 14.24063050151652
CO-57
1 27848U 03031J   25252.01328401  .00000286  00000-0  14544-3 0  9998
2 27848  98.6816 259.0555 0008524 304.1857  55.8512 14.23388336151371
RS-22
1 27939U 03042A   25252.27634307  .00001278  00000-0  20907-3 0  9996
2 27939  98.3364  64.0000 0012576  80.4658 356.7319 14.72570131174194
CO-58
1 28895U 05043F   25252.13420315  .00001683  00000-0  28028-3 0  9990
2 28895  98.2627  37.7086 0014748  21.4695 338.7127 14.71320849 60400
CO-65
1 32785U 08021C   25252.23445581  .00004377  00000-0  30992-3 0  9991
2 32785  97.7946 224.1731 0007409 259.4214 100.6178 15.05345725942865
CO-66
1 32791U 08021J   25251.89926820  .00013674  00000-0  62052-3 0  9991
2 32791  97.7358 234.1469 0003488 168.4634 191.6682 15.20926217944361
RS-30
1 32953U 08025A   25252.22848370  .00000029  00000-0  13696-3 0  9996
2 32953  82.5072 170.1953 0018312 203.0530 156.9730 12.43168010784783
NOAA-19
1 33591U 09005A   25252.23231267  .00000124  00000-0  89684-4 0  9993
2 33591  98.9896 317.4191 0014799 104.3994 255.8822 14.13405143854799
SRMSAT
1 37841U 11058D   25251.88382101  .00000426  00000-0  87933-4 0  9990
2 37841  19.9729 322.0218 0011808 350.1762 164.8232 14.11462251718023
ZACUBE-1
1 39417U 13066B   25251.82424894  .00006147  00000-0  52197-3 0  9991
2 39417  97.7875 208.4360 0045620 106.6613 253.9625 14.97446337638560
Delfi-N3xt
1 39428U 13066N   25252.23139739  .00007790  00000-0  77024-3 0  9991
2 39428  97.8290 168.8932 0084759  59.1894 301.7631 14.89479043632718
GOMX-1
1 39430U 13066Q   25252.24337407  .00001779  00000-0  28137-3 0  9999
2 39430  97.6728 105.2593 0130248 258.9188  99.7349 14.67977268628671
LO-74
1 39440U 13066AA  25252.26275552  .00003978  00000-0  39863-3 0  9995
2 39440  97.8547 196.2486 0059567 236.4394 123.1128 14.90632789635091
AO-73
1 39444U 13066AE  25252.16286307  .00007557  00000-0  54690-3 0  9990
2 39444  97.7923 214.5320 0043497  78.3251 282.2851 15.03531160637349
DTUSAT-2
1 40030U 14033W   25251.87865790  .00007576  00000-0  47683-3 0  9999
2 40030  98.0645 228.2277 0010980 108.6069 251.6352 15.09459425610161
EO-80
1 40032U 14033Y   25252.15934997  .00007750  00000-0  48656-3 0  9994
2 40032  98.0523 228.0497 0009976  59.4329 300.7881 15.09549384610184
LILACSAT-2
1 40908U 15049K   25252.30043837  .00011735  00000-0  28614-3 0  9995
2 40908  97.5026 274.9750 0009002 177.3231 182.8065 15.41012538552340
IO-86
1 40931U 15052B   25151.18580175  .00001241  00000-0  78118-4 0  9996
2 40931   6.0006  24.0987 0012733 338.8432  21.1169 14.78805930523159
Horyu-4
1 41340U 16012D   25252.26376288  .00028882  00000-0  67100-3 0  9995
2 41340  30.9952 233.6572 0006593 286.2785  73.7137 15.41093110526928
Lapan A3
1 41603U 16040E   25252.31648015  .00003357  00000-0  11626-3 0  9996
2 41603  97.1411 253.3763 0009111 308.3653  51.6770 15.30481221511817
CAS-2T
1 41847U 16066G   25252.24176331  .00000996  00000-0  15169-3 0  9995
2 41847  98.4136 325.8903 0344150 261.1171  95.0917 14.43701392464248
CAS-4B
1 42759U 17034B   25252.13050594  .00180274  00000-0  86370-3 0  9994
2 42759  43.0006 130.6102 0023355 224.8741 135.0242 15.81039769456990
CAS-4A
1 42761U 17034D   25252.11734492  .00211448  00000-0  85968-3 0  9991
2 42761  43.0037 126.3343 0024110 230.6870 129.1865 15.84390898457020
TechnoSat
1 42829U 17042E   25252.04827232  .00003072  00000-0  23622-3 0  9993
2 42829  97.4014  56.4497 0016733 340.4112  19.6468 15.02314292444456
AO-91
1 43017U 17073E   25252.11984401  .00009130  00000-0  45580-3 0  9995
2 43017  97.5099 120.5964 0167542 214.0273 145.0122 15.06203740422985
S-Net D
1 43186U 18014G   25252.27697174  .00005608  00000-0  32386-3 0  9999
2 43186  97.5512 154.2449 0007024 269.9397  90.1029 15.12702221416230
S-Net B
1 43187U 18014H   25252.28358239  .00005416  00000-0  31307-3 0  9996
2 43187  97.5517 154.2278 0007693 263.7533  96.2821 15.12679849416238
S-Net A
1 43188U 18014J   25252.27703058  .00005469  00000-0  31586-3 0  9996
2 43188  97.5527 154.3835 0007573 264.8602  95.1764 15.12707277416237
S-Net C
1 43189U 18014K   25252.22005425  .00005370  00000-0  31040-3 0  9991
2 43189  97.5541 154.3569 0009152 256.3192 103.7020 15.12675114414775
Ten-Koh
1 43677U 18084G   25252.07278778  .00002075  00000-0  16766-3 0  9993
2 43677  98.0817  67.9557 0005899 323.8662  36.2162 15.00989772373968
PO-101
1 43678U 18084H   25252.26943808  .00001648  00000-0  14218-3 0  9993
2 43678  98.1100  71.9473 0008567 354.4594   5.6531 14.98741138374112
QO-100
1 43700U 18090A   25252.23793080  .00000142  00000-0  00000-0 0  9997
2 43700   0.0164 148.4620 0001343  50.8806 260.6598  1.00270704 24856
MinXSS-2
1 43758U 18099A   25252.13880749  .00019089  00000-0  68687-3 0  9995
2 43758  97.4935 318.5992 0011377 186.9528 173.1556 15.28586953370944
AO-95
1 43770U 18099N   25252.14601637  .00008647  00000-0  41783-3 0  9993
2 43770  97.4828 309.2698 0008940 248.7015 111.3265 15.18841005370446
SNUSat 2
1 43782U 18099AA  25251.67631974  .00008254  00000-0  43364-3 0  9991
2 43782  97.4513 304.7960 0011655 190.5178 169.5813 15.15892075370290
SnugLite
1 43784U 18099AC  25252.09011447  .00009588  00000-0  45855-3 0  9995
2 43784  97.4323 304.9654 0003701 171.1928 188.9372 15.19192731370521
ITASat 1
1 43786U 18099AE  25252.11781230  .00005580  00000-0  31000-3 0  9999
2 43786  97.4477 304.4600 0012645 246.4307 113.5597 15.14043021370304
EAGLET 1
1 43790U 18099AJ  25252.10239830  .00004451  00000-0  27906-3 0  9993
2 43790  97.4672 304.0797 0010840 230.3466 129.6808 15.09789636369878
ESEO
1 43792U 18099AL  25252.15740588  .00001428  00000-0  11053-3 0  9994
2 43792  97.4367 296.1500 0011562 206.9556 153.1070 15.02921214369578
JO-97
1 43803U 18099AX  25251.92025364  .00012309  00000-0  52771-3 0  9991
2 43803  97.4573 310.2557 0007645 175.1524 184.9788 15.22867237370665
Suomi 100
1 43804U 18099AY  25252.15633672  .00009396  00000-0  43750-3 0  9994
2 43804  97.4638 309.5057 0012177 181.6687 178.4510 15.20071792370608
ISAT
1 43879U 18111D   25252.22915656  .00022355  00000-0  68937-3 0  9998
2 43879  97.5877 168.8259 0006171 213.0236 147.0621 15.33587892367724
UWE-4
1 43880U 18111E   25252.21109230  .00016269  00000-0  58518-3 0  9993
2 43880  97.5824 166.5921 0008890 240.1476 119.8880 15.28661556367612
Sparrow
1 43881U 18111F   25252.26156173  .00024849  00000-0  73056-3 0  9994
2 43881  97.6041 172.1169 0003229 264.6330  95.4544 15.35091349367838
Prox-1
1 44339U 19036A   25252.19835667  .00011662  00000-0  14092-2 0  9997
2 44339  23.9959 179.2101 0006663  37.5353 322.5609 14.81813019331617
Taurus 1
1 44530U 19059C   25252.30237851  .00006334  00000-0  11397-2 0  9994
2 44530  98.6170  36.1622 0009768 111.6376 248.5868 14.66950664317384
Duchifat 3
1 44854U 19089C   25252.00176260  .00074798  00000-0  10326-2 0  9999
2 44854  36.9379 130.4604 0008233 312.2404  47.7657 15.56005755317213
TO-108
1 44881U 19093C   25252.29130605  .00000967  00000-0  11729-3 0  9994
2 44881  97.7861 326.0035 0012390 292.8136  67.1770 14.85778115309692
FloripaSat 1
1 44885U 19093G   25252.20558397  .00005848  00000-0  48164-3 0  9997
2 44885  97.8176 340.0365 0007758 258.5307 101.5045 14.99445890310471
RS-44
1 44909U 19096E   25252.26048341  .00000039  00000-0  10536-3 0  9995
2 44909  82.5254 166.3814 0218554  81.2125 281.3658 12.79743278266419
UPMSat 2
1 46276U 20061E   25251.74120238  .00217693  00000-0  80328-3 0  9998
2 46276  97.2306 330.1285 0002991 222.1190 137.9853 15.87647956279826
SALSAT
1 46495U 20068K   25252.18524369  .00007135  00000-0  29715-3 0  9991
2 46495  97.8695 234.5674 0010536 193.2380 166.8581 15.24021155272479
